STARLINK-3967, 52636

Orbit data source: Space-Track

STARLINK-3967, 52636 is a payload satellite owned by SpaceX/Seattle (US) in LEO that was launched on Sat, 14 May 2022 UTC via an FALCON 9 launch vehicle from the Air Force Eastern Test Range (AFETR). Payload-class satellites include a variety of spacecraft equipped with specific instruments for various scientific and technological missions. These include communications satellites like Starlink; space stations such as the ISS; scientific satellites like the Hubble; Earth observation satellites from companies like Planet Labs, Umbra, and HawkEye 360; GPS; miniature CubeSats for education and research; and military/defense satellites.

Loading next visibility...
Identifier
52636, 2022-052AQ
Orbit
LEO
Country
Flag of USUS
Related business
Manufacturer
SpaceX/Seattle
Mission
Operational Commercial Communications
Bus & Motor
STARLINK, Unknown motor
Mass
297 kg wet, ~275 kg dry
Launch date (UTC)
2022-05-14 (4 years ago)
Launch vehicle
FALCON 9
Launch site
Air Force Eastern Test Range (AFETR)
Object type
Payload
Rocket body
Debris
Shape & HBR
Box + 1 Pan, 10.1 m
Radar Cross Section
13.562 m², Large (>1 m²)

Expand to show TLE details & history
Last TLE update: 2 days ago

TLE from 2 days ago
0 STARLINK-3967
1 52636U 22052AQ  26171.31043903  .00000213  00000-0  31512-4 0  9995
2 52636  53.1591 168.3243 0001575  71.2088 288.9074 15.08832946226485
Epoch: 2026-06-20T07:27Z
TLE epoch observation values (Epoch: 2026-06-20T07:27:01.932Z)
Latitude
-0.00002°
Longitude
148.03934°
Altitude
540.303 km
Speed
7.594 km/s
True Right ascension
11h 13m 17s
True Declination
0° 00' 00"
Sunlit
Object was in daylight at epoch
Visualization orbit readout
Latitude
Unknown
Longitude
Unknown
Altitude
Unknown
Speed
Unknown
Apparent Right ascension
Unknown
Apparent Declination
Unknown
Sunlit
N/A
Visualization observer readout
Local Sidereal Time
23:08:18
Azimuth
Unknown
Elevation
Unknown
Doppler factor
Unknown
Orbital elements
Apogee altitude
541.109 km
Perigee altitude
538.93 km
Semi-major axis
6,918.156 km
Eccentricity
0.00016
Inclination
53.1591°
RAAN
168.3243°
Arg. of periapsis
71.2088°
True anomaly
288.89032°
Mean anomaly
288.9074°
Eccentric anomaly
288.89886°
Mean motion
3.77188 °/min
Orbital period
95.44 mins
BSTAR
0.000031512
Loading maneuver chart data...
Computing Atmospheric mass density...
Loading historical data...
Loading historical data...
Loading historical data...
Loading historical data...
Loading historical data...
Loading historical data...
Loading historical data...

Documentation

Showing up to 5 results
|